Wind_Speed
44 41 35 33 29 30 29 26 22 23 25 23 23 21 17 17 18 19 17 17 15 15 15 16 18 19 18 20 18 15 12 9 10 12 13 12 12 12 12 11 10 9 12 12 14
48 42 39 36 35 33 32 29 26 23 27 26 23 22 18 17 16 16 15 16 16 15 15 15 17 19 20 19 19 15 14 13 11 12 14 17 18 17 16 17 16 17 16 16 16
56 45 41 40 38 35 35 35 30 25 25 30 29 23 21 19 18 16 15 16 17 15 14 17 18 20 20 20 17 18 15 16 14 12 14 16 19 20 20 22 20 21 21 22 20
58 53 47 45 44 40 39 37 34 31 28 28 31 30 25 22 21 19 18 19 21 19 15 19 17 18 20 20 20 18 18 18 17 15 13 13 16 19 22 25 23 23 24 24 24
63 58 53 50 48 46 42 40 35 34 35 32 31 33 32 27 25 24 22 22 23 22 18 17 18 19 19 21 20 20 19 18 19 19 16 14 11 13 17 18 17 17 19 23 23
65 63 60 58 52 51 50 43 40 40 38 39 36 33 35 34 31 29 26 26 26 27 25 25 22 24 22 24 25 23 23 21 19 20 17 16 16 12 12 10 14 15 14 14 16
73 68 67 62 60 57 53 46 44 43 43 40 41 38 37 38 37 34 32 31 30 31 31 31 28 26 27 29 28 27 24 24 21 20 20 18 20 18 17 15 15 15 12 10 10
77 74 71 66 64 60 56 52 49 48 47 44 42 43 41 41 42 41 38 37 35 34 35 35 33 31 32 35 33 30 26 24 22 22 22 21 22 18 18 21 22 20 15 15 17
78 80 83 74 70 65 62 59 55 52 52 48 44 40 44 44 43 43 44 42 41 39 38 37 38 37 34 38 39 31 29 25 24 22 22 23 25 19 20 22 24 24 22 22 23
72 76 73 79 75 70 66 63 59 58 56 53 48 44 43 46 46 45 46 47 47 45 43 40 40 40 38 42 35 32 29 27 26 23 22 21 25 26 27 26 25 26 26 26 24
85 82 77 83 78 73 71 68 66 63 60 56 53 49 48 46 47 49 48 48 51 52 48 46 44 44 41 42 37 33 32 30 28 24 21 19 23 21 27 30 27 27 28 26 27
94 86 89 88 83 77 74 71 72 67 65 59 57 55 53 51 49 48 50 50 51 52 52 54 53 49 47 45 37 32 31 30 26 25 21 21 24 24 27 31 29 28 29 28 29
101 97 93 89 87 84 80 79 77 72 69 64 62 60 57 57 55 54 52 53 54 53 54 53 55 53 46 46 39 31 27 26 26 27 26 27 28 28 27 30 28 26 24 28 27
103 101 94 92 91 87 80 87 86 80 75 68 68 63 62 63 59 58 57 55 56 54 56 52 49 51 46 48 41 33 29 25 25 29 30 31 34 33 31 31 32 28 30 32 32
114 110 108 104 99 94 92 91 91 86 78 71 69 67 66 65 63 61 60 57 56 57 55 50 48 46 44 47 43 41 36 32 29 29 35 37 36 44 37 38 37 37 38 40 41
115 111 107 105 101 98 94 88 94 93 74 69 68 71 72 71 69 66 64 62 60 59 57 54 52 51 49 49 47 47 45 40 38 36 36 43 41 45 44 43 41 40 43 45 46
115 114 112 107 104 103 101 97 103 88 77 73 72 75 76 77 75 71 69 65 63 60 60 58 57 56 53 52 53 54 51 48 44 44 41 46 43 48 53 52 52 50 49 51 51
117 113 116 114 111 107 106 108 104 91 87 80 79 78 82 84 81 74 71 69 67 66 63 64 61 62 59 57 57 59 58 57 53 52 49 50 48 52 59 58 59 61 60 58 60
130 127 115 115 118 119 117 114 97 94 93 88 87 84 82 84 84 83 79 74 71 70 69 66 64 64 65 65 63 61 61 65 61 58 57 56 57 58 61 63 62 63 64 64 66
132 130 130 121 119 119 121 112 108 101 101 97 89 89 84 83 83 79 78 77 74 72 71 69 69 67 68 67 67 66 68 67 66 65 62 60 60 60 60 63 64 67 67 68 69
137 136 129 129 128 128 120 110 113 108 106 103 102 94 86 81 82 77 77 79 78 79 76 73 72 69 69 66 69 69 70 72 73 70 68 69 71 72 62 61 65 66 68 72 72
142 138 132 135 134 129 121 115 111 107 104 102 98 93 89 85 83 81 78 82 81 81 82 81 78 77 75 73 76 74 72 72 73 72 70 71 69 73 73 73 71 72 73 76 77
141 142 138 139 139 132 126 123 115 113 111 106 101 97 94 90 88 87 86 83 85 85 82 84 81 81 80 81 80 79 80 80 80 81 75 79 77 79 82 80 78 79 80 82 83
146 143 146 143 142 136 132 128 124 119 117 113 106 103 99 96 94 91 90 91 90 90 89 88 86 83 82 85 82 82 84 87 89 86 84 81 88 88 81 84 85 86 86 88 90
147 147 145 146 146 140 136 133 129 125 123 121 116 111 107 104 102 97 97 97 96 95 95 94 89 93 90 91 90 89 90 91 94 95 95 89 96 96 93 90 91 92 93 94 96
145 144 147 149 147 144 143 138 132 129 127 126 121 119 117 114 110 107 104 101 101 101 100 100 97 99 95 97 98 98 96 99 102 103 102 99 102 103 102 99 97 98 98 101 102
134 139 149 148 148 145 144 142 138 133 131 128 125 123 123 119 115 113 112 109 107 107 107 108 106 106 102 108 107 106 103 107 108 110 109 110 110 111 109 108 107 105 107 109 109
Wind_Direction
262 253 254 259 261 269 273 279 273 264 259 262 264 263 270 276 289 293 297 304 309 317 326 333 337 342 344 345 349 344 339 327 319 299 292 280 283 287 289 296 289 295 302 304 307
252 249 250 252 256 262 269 270 273 263 258 255 259 260 265 267 276 290 290 300 308 307 316 326 329 331 337 336 332 333 326 327 317 314 292 280 284 286 283 282 277 279 286 284 290
247 247 249 251 253 260 263 270 269 265 259 255 253 259 262 267 271 279 283 289 294 293 305 314 313 319 326 329 331 323 315 307 308 308 297 290 280 274 281 282 283 282 274 273 275
249 245 248 249 251 258 261 263 271 267 262 260 258 255 258 263 270 267 270 280 284 283 289 305 311 319 320 320 319 322 314 305 296 297 296 290 284 278 276 277 280 281 281 277 276
243 243 242 247 250 257 258 258 264 273 270 264 263 262 258 259 262 265 264 268 276 276 279 291 301 309 310 313 311 313 312 304 296 292 289 281 277 280 274 281 282 283 288 286 284
239 240 242 245 248 252 257 255 262 268 271 268 263 262 260 258 257 261 265 265 267 270 268 271 286 296 306 307 308 307 306 306 299 292 287 273 267 274 273 289 287 282 284 297 295
239 241 241 244 245 248 253 253 259 265 268 267 265 263 263 260 258 257 258 263 263 266 266 268 273 284 294 300 300 300 297 303 296 287 277 267 264 265 270 273 285 278 286 295 293
242 242 242 240 242 245 247 250 254 258 264 267 264 261 262 262 260 257 254 257 261 264 266 266 270 277 287 297 297 293 283 293 299 283 277 268 268 268 281 282 278 280 267 278 290
245 243 244 241 243 246 247 248 250 253 258 262 261 262 261 261 262 262 259 254 255 259 262 264 268 272 282 291 295 291 278 283 293 280 277 266 264 265 282 283 277 281 284 282 283
240 235 238 239 242 244 245 246 247 251 254 259 259 262 260 260 262 263 263 261 258 257 258 261 265 270 275 284 285 286 275 277 287 282 272 263 266 262 270 277 280 280 278 279 283
232 232 234 240 243 248 245 247 250 252 252 255 258 262 264 265 265 262 263 263 261 260 260 257 260 266 270 277 281 277 272 267 280 280 271 267 270 268 266 270 272 277 275 278 272
230 234 239 242 244 245 244 245 249 252 252 253 256 261 263 265 266 268 264 263 261 261 260 260 259 265 266 270 271 266 267 263 271 272 269 261 267 273 269 271 272 274 275 275 279
230 233 238 241 243 244 244 245 246 249 248 249 253 257 261 264 267 267 268 262 261 262 262 262 261 260 261 263 261 254 256 260 257 259 263 267 265 265 263 267 269 274 281 280 278
230 233 233 237 240 240 244 245 247 247 247 248 250 255 259 264 263 266 266 265 262 262 260 261 263 258 253 255 252 247 249 256 254 252 260 264 265 265 260 262 263 266 272 271 271
231 234 236 236 239 241 242 244 245 248 247 247 252 254 259 261 263 265 264 265 264 261 261 257 259 254 247 251 249 244 249 252 250 258 256 263 266 268 263 266 265 267 267 268 270
230 232 235 237 239 240 241 244 246 245 245 248 251 256 259 262 262 263 261 261 262 259 259 257 253 248 247 251 247 246 247 251 251 254 252 259 261 269 271 270 267 267 269 272 275
228 231 232 235 237 239 241 239 245 246 246 248 249 253 258 261 262 262 260 258 260 259 258 257 253 248 250 253 250 247 249 251 250 250 253 258 259 267 271 274 275 274 272 273 276
222 227 230 232 233 236 241 241 245 249 249 247 250 250 256 259 259 259 258 257 256 256 255 256 255 249 251 252 254 252 251 254 254 251 253 256 261 266 272 276 281 280 279 278 278
226 225 227 232 233 235 238 242 246 247 249 247 248 250 253 257 257 259 257 257 253 253 255 253 254 253 253 256 257 257 258 257 254 257 257 257 262 266 272 276 278 280 282 283 282
226 227 229 232 233 234 236 239 243 244 248 249 248 251 251 252 255 253 253 254 253 251 252 254 254 253 253 256 259 259 260 261 261 259 260 260 263 264 269 271 274 275 275 277 280
228 227 228 231 234 236 239 239 241 242 244 246 249 249 246 247 250 253 252 252 255 253 251 251 252 254 255 257 258 259 259 260 261 262 262 262 267 272 268 269 272 273 274 274 275
227 229 228 230 232 235 237 240 239 240 241 243 244 244 245 245 248 250 253 253 253 254 253 253 252 252 255 258 261 261 262 261 262 261 264 266 266 268 269 269 269 269 271 272 272
227 229 229 230 232 233 234 237 238 238 240 240 241 242 244 246 247 249 250 251 254 255 256 257 257 256 256 259 258 259 261 262 263 264 266 267 269 267 270 271 271 270 270 269 270
227 228 229 230 232 232 233 234 236 236 238 240 241 242 244 246 247 248 250 251 252 254 256 257 260 261 261 260 262 263 263 265 265 264 264 268 268 267 268 268 267 267 268 269 271
227 229 229 231 233 234 234 235 236 236 239 241 241 242 243 244 246 248 249 250 252 254 256 257 257 259 261 262 262 260 263 264 265 266 266 264 266 267 270 268 269 270 271 273 274
226 228 230 231 233 233 236 235 236 237 238 241 242 243 244 245 245 246 248 250 252 253 254 256 257 258 259 261 262 262 264 265 264 265 266 266 267 270 271 270 270 271 273 275 276
227 229 231 232 233 235 235 235 237 237 239 240 242 242 244 244 245 247 249 249 249 252 254 256 257 257 258 259 259 259 262 264 264 266 266 267 268 269 270 271 273 274 275 277 277
Height
10797 10799 10800 10801 10802 10803 10803 10803 10802 10802 10803 10803 10802 10803 10803 10804 10805 10806 10805 10804 10803 10802 10802 10800 10799 10798 10797 10796 10794 10792 10791 10790 10788 10788 10788 10788 10787 10786 10786 10786 10786 10786 10785 10785 10784
10788 10790 10792 10794 10795 10796 10797 10797 10798 10797 10798 10799 10799 10799 10799 10800 10801 10801 10802 10801 10801 10800 10800 10799 10798 10797 10796 10795 10793 10792 10790 10789 10787 10786 10786 10786 10785 10785 10785 10785 10785 10784 10784 10784 10783
10779 10781 10784 10786 10787 10789 10791 10792 10792 10791 10792 10793 10794 10794 10795 10796 10796 10797 10798 10798 10798 10798 10798 10797 10796 10795 10795 10793 10792 10790 10789 10787 10786 10785 10784 10783 10783 10783 10783 10782 10782 10782 10781 10780 10780
10769 10771 10774 10777 10779 10781 10783 10785 10785 10786 10785 10787 10788 10789 10790 10791 10792 10792 10793 10794 10794 10794 10795 10794 10794 10793 10792 10791 10790 10789 10787 10785 10784 10783 10782 10781 10780 10780 10780 10778 10779 10778 10777 10777 10777
10757 10761 10763 10767 10769 10771 10774 10777 10778 10778 10779 10779 10781 10783 10784 10786 10787 10787 10788 10789 10789 10790 10790 10791 10791 10790 10789 10788 10787 10786 10784 10783 10781 10780 10779 10779 10778 10777 10776 10776 10776 10775 10774 10773 10772
10743 10748 10752 10756 10759 10762 10765 10768 10770 10770 10771 10773 10774 10776 10778 10780 10781 10782 10784 10784 10784 10785 10785 10786 10787 10786 10786 10785 10784 10782 10781 10779 10778 10776 10776 10775 10775 10774 10773 10773 10773 10772 10771 10770 10769
10729 10735 10740 10744 10748 10752 10755 10758 10761 10762 10763 10765 10766 10768 10771 10772 10774 10776 10778 10779 10779 10779 10780 10780 10781 10781 10781 10781 10780 10779 10777 10775 10774 10773 10771 10771 10770 10771 10770 10770 10770 10769 10769 10768 10767
10714 10721 10726 10730 10735 10740 10744 10748 10751 10752 10754 10755 10758 10761 10763 10764 10765 10767 10770 10772 10773 10773 10774 10775 10775 10776 10775 10775 10774 10774 10772 10771 10769 10768 10768 10768 10766 10767 10767 10767 10766 10766 10766 10765 10764
10698 10705 10710 10716 10721 10726 10731 10735 10739 10741 10744 10746 10749 10752 10754 10755 10757 10759 10761 10764 10765 10766 10767 10769 10769 10769 10770 10769 10768 10768 10767 10766 10764 10763 10762 10762 10760 10763 10762 10762 10761 10762 10762 10762 10761
10682 10687 10695 10700 10706 10712 10718 10722 10727 10730 10733 10736 10739 10743 10745 10746 10749 10751 10752 10754 10756 10758 10759 10761 10762 10762 10764 10762 10761 10762 10761 10760 10759 10758 10756 10755 10754 10756 10757 10755 10756 10757 10756 10756 10756
10663 10670 10677 10683 10690 10698 10705 10709 10714 10719 10721 10724 10729 10734 10733 10736 10739 10741 10743 10745 10746 10748 10750 10752 10754 10753 10757 10754 10754 10754 10754 10753 10754 10752 10752 10751 10748 10750 10750 10749 10749 10750 10750 10750 10750
10643 10653 10660 10667 10674 10682 10690 10696 10699 10708 10709 10713 10718 10721 10724 10726 10729 10731 10733 10735 10736 10738 10740 10742 10744 10745 10747 10747 10747 10747 10747 10746 10747 10746 10746 10745 10744 10744 10744 10743 10743 10743 10743 10743 10743
10621 10631 10640 10649 10657 10667 10675 10682 10684 10689 10694 10701 10706 10711 10713 10715 10718 10720 10722 10724 10725 10727 10729 10732 10734 10735 10737 10737 10738 10739 10739 10739 10739 10738 10738 10738 10737 10736 10736 10736 10737 10736 10738 10738 10737
10601 10611 10619 10630 10642 10649 10659 10662 10665 10670 10679 10690 10695 10700 10701 10703 10709 10707 10710 10712 10714 10716 10718 10721 10723 10722 10726 10726 10729 10730 10730 10731 10731 10731 10730 10730 10727 10727 10728 10728 10728 10729 10731 10729 10728
10580 10590 10599 10611 10624 10631 10637 10641 10647 10649 10666 10678 10684 10688 10688 10691 10694 10696 10697 10701 10702 10704 10706 10710 10711 10712 10715 10716 10718 10721 10720 10722 10722 10723 10722 10721 10720 10710 10718 10719 10721 10722 10721 10719 10718
10557 10568 10578 10592 10602 10610 10616 10621 10624 10627 10660 10667 10671 10672 10673 10676 10680 10682 10683 10687 10690 10693 10695 10699 10700 10702 10704 10705 10708 10710 10710 10711 10713 10714 10715 10710 10712 10700 10703 10707 10709 10713 10712 10711 10710
10534 10545 10559 10569 10582 10584 10592 10599 10600 10624 10645 10652 10657 10657 10657 10660 10665 10668 10669 10674 10677 10680 10684 10686 10689 10691 10693 10694 10695 10697 10698 10700 10702 10703 10706 10702 10705 10698 10689 10690 10693 10699 10701 10699 10699
10511 10520 10534 10548 10554 10562 10566 10572 10588 10620 10621 10632 10636 10640 10642 10644 10648 10652 10657 10660 10662 10664 10669 10673 10677 10678 10679 10681 10682 10684 10686 10687 10691 10691 10694 10693 10696 10692 10677 10683 10684 10680 10681 10682 10681
10479 10497 10513 10525 10532 10539 10543 10553 10590 10596 10601 10610 10613 10621 10627 10628 10631 10634 10641 10645 10646 10648 10653 10658 10665 10664 10666 10667 10669 10671 10672 10671 10677 10677 10680 10683 10681 10681 10675 10672 10672 10669 10666 10665 10666
10462 10477 10492 10498 10505 10511 10519 10550 10561 10577 10582 10590 10597 10601 10609 10612 10613 10617 10622 10629 10631 10632 10637 10645 10647 10650 10651 10653 10655 10655 10654 10656 10659 10663 10666 10668 10666 10666 10668 10662 10661 10657 10652 10651 10651
10434 10447 10473 10474 10477 10482 10513 10538 10541 10555 10560 10568 10575 10584 10591 10597 10595 10601 10607 10613 10616 10616 10620 10625 10629 10636 10637 10640 10636 10639 10641 10638 10637 10643 10648 10652 10648 10654 10654 10652 10648 10645 10642 10637 10636
10406 10422 10450 10447 10453 10471 10498 10513 10519 10531 10537 10547 10555 10562 10571 10576 10579 10584 10591 10593 10598 10600 10603 10604 10611 10617 10620 10622 10618 10622 10624 10621 10621 10623 10629 10632 10636 10631 10632 10634 10636 10634 10630 10626 10623
10382 10395 10414 10419 10424 10455 10474 10481 10493 10505 10512 10524 10534 10542 10550 10556 10561 10566 10570 10577 10579 10583 10586 10585 10593 10595 10605 10603 10600 10603 10604 10602 10601 10604 10616 10611 10613 10606 10611 10615 10616 10614 10611 10608 10605
10355 10368 10378 10394 10405 10430 10442 10454 10469 10480 10486 10501 10516 10522 10529 10536 10539 10548 10553 10555 10559 10561 10564 10566 10572 10580 10582 10576 10583 10586 10584 10582 10578 10586 10588 10596 10582 10578 10596 10595 10595 10594 10590 10587 10584
10329 10342 10355 10366 10382 10404 10417 10431 10444 10460 10468 10479 10491 10505 10506 10512 10516 10525 10531 10533 10538 10541 10542 10546 10555 10550 10556 10554 10559 10565 10566 10564 10562 10562 10562 10572 10554 10554 10565 10569 10569 10569 10568 10566 10564
10303 10318 10327 10338 10356 10373 10388 10405 10424 10436 10445 10455 10472 10479 10482 10489 10496 10500 10505 10515 10517 10519 10520 10522 10530 10526 10534 10530 10532 10535 10546 10544 10543 10538 10539 10542 10534 10536 10538 10539 10541 10542 10542 10540 10538
10280 10293 10297 10313 10331 10347 10364 10382 10396 10412 10422 10433 10443 10453 10456 10465 10475 10480 10480 10486 10496 10496 10496 10498 10503 10504 10515 10499 10502 10509 10522 10517 10515 10512 10520 10516 10509 10506 10511 10512 10513 10513 10513 10511 10509